Weather History for Lincoln, NE

Change the Weather History Date:

Monday, October 21, 2013

  Actual Average Record
Temperature  
Mean Temperature 42 °F 51 °F  
Max Temperature 56 °F 64 °F 89 °F (1899)
Min Temperature 28 °F 39 °F 20 °F (1987)
Degree Days  
Heating Degree Days 23 14  
Month to date heating degree days 208 219  
Since 1 July heating degree days 239 317  
Cooling Degree Days 0 0  
Month to date cooling degree days 18 12  
Year to date cooling degree days 1236 1170  
Moisture  
Dew Point 32 °F    
Average Humidity 68    
Maximum Humidity 92    
Minimum Humidity 43    
Precipitation  
Precipitation 0.00 in 0.07 in 0.75 in (1941)
Month to date precipitation 2.59 1.42  
Year to date precipitation 25.03 26.02  
Snow  
Snow 0.00 in 0.00 in - ()
Month to date snowfall 0.0 0.3  
Since 1 July snowfall 0.0 0.3  
Snow Depth 0.00 in    
Sea Level Pressure  
Sea Level Pressure 30.07 in    
Wind  
Wind Speed 5 mph (West)    
Max Wind Speed 17 mph    
Max Gust Speed 21 mph    
Visibility 10 miles    
Events      
T = Trace of Precipitation, MM = Missing Value Source: NWS Daily Summary

Daily Weather History Graph

Daily Weather History Graph

Search for Another Location

Airport:

Trip Planner

Search our weather history database for the weather conditions in past years. The results will help you decide how hot, cold, wet, or windy it might be!

Date:

Astronomy

Oct. 21, 2013 Rise Set
Actual Time 7:45 AM CDT 6:37 PM CDT
Civil Twilight 7:17 AM CDT 7:05 PM CDT
Nautical Twilight 6:45 AM CDT 7:37 PM CDT
Astronomical Twilight 6:13 AM CDT 8:08 PM CDT
Moon 8:30 PM CDT (10/21) 10:22 AM CDT (10/21)
Length of Visible Light 11h 47m
Length of Day
10h 52m
Waning Gibbous, 92% of the Moon is Illuminated
Oct 21
Waning Gibbous
Oct 26
Last Quarter
Nov 3
New
Nov 9
First Quarter
Nov 17
Full

Hourly Weather History & Observations

Time (CDT) Temp. Windchill Dew Point Humidity Pressure Visibility Wind Dir Wind Speed Gust Speed Precip Events Conditions
12:54 AM 39.0 °F 33.4 °F 33.1 °F 79% 30.08 in 10.0 mi North 8.1 mph - N/A   Clear
1:54 AM 39.0 °F 34.0 °F 33.1 °F 79% 30.09 in 10.0 mi NNW 6.9 mph - N/A   Clear
2:54 AM 37.0 °F 31.6 °F 32.0 °F 82% 30.10 in 10.0 mi NW 6.9 mph - N/A   Clear
3:54 AM 36.0 °F 29.6 °F 32.0 °F 86% 30.12 in 10.0 mi NW 8.1 mph - N/A   Clear
4:54 AM 30.0 °F 25.2 °F 28.0 °F 92% 30.12 in 10.0 mi North 4.6 mph - N/A   Clear
5:54 AM 28.9 °F 25.2 °F 27.0 °F 92% 30.12 in 10.0 mi NNW 3.5 mph - N/A   Clear
6:54 AM 33.1 °F 30.0 °F 30.0 °F 89% 30.13 in 10.0 mi NNW 3.5 mph - N/A   Clear
7:54 AM 30.0 °F - 26.1 °F 85% 30.14 in 10.0 mi Calm Calm - N/A   Clear
8:54 AM 34.0 °F - 30.0 °F 85% 30.15 in 10.0 mi Calm Calm - N/A   Partly Cloudy
9:54 AM 37.9 °F 35.5 °F 33.1 °F 83% 30.15 in 10.0 mi SSW 3.5 mph - N/A   Overcast
10:54 AM 42.1 °F 38.4 °F 33.1 °F 70% 30.15 in 10.0 mi WSW 5.8 mph - N/A   Overcast
11:54 AM 45.0 °F 41.2 °F 34.0 °F 65% 30.13 in 10.0 mi WSW 6.9 mph - N/A   Overcast
12:54 PM 48.0 °F - 32.0 °F 54% 30.10 in 9.0 mi WSW 5.8 mph - N/A   Overcast
1:54 PM 52.0 °F - 32.0 °F 47% 30.07 in 10.0 mi WSW 9.2 mph - N/A   Partly Cloudy
2:54 PM 52.0 °F - 34.0 °F 50% 30.05 in 10.0 mi SW 16.1 mph - N/A   Overcast
3:54 PM 55.9 °F - 35.1 °F 45% 30.02 in 10.0 mi West 8.1 mph - N/A   Partly Cloudy
4:54 PM 55.9 °F - 33.1 °F 42% 30.02 in 10.0 mi West 11.5 mph - N/A   Clear
5:54 PM 55.0 °F - 33.1 °F 43% 30.02 in 10.0 mi West 5.8 mph - N/A   Clear
6:54 PM 48.0 °F - 33.1 °F 56% 30.01 in 10.0 mi Calm Calm - N/A   Scattered Clouds
7:54 PM 42.1 °F 38.4 °F 33.1 °F 70% 30.01 in 10.0 mi South 5.8 mph - N/A   Clear
8:54 PM 44.1 °F 40.8 °F 35.1 °F 71% 29.99 in 10.0 mi South 5.8 mph - N/A   Overcast
9:54 PM 45.0 °F 43.5 °F 35.1 °F 68% 29.98 in 10.0 mi South 3.5 mph - N/A   Overcast
10:54 PM 43.0 °F 41.3 °F 36.0 °F 76% 29.97 in 10.0 mi South 3.5 mph - N/A   Overcast
11:54 PM 39.0 °F 35.7 °F 34.0 °F 82% 29.95 in 10.0 mi South 4.6 mph - N/A   Partly Cloudy